GW1024 Weather Reports


time (UTC)temp
F
wind
direction
speed
knots
gust
knots
rain 1hr
in
rain 24hr
in
rain mn
in
humidity
%
barometer
mb
20260507154532 55 38 0.9 6.1 0.00 0.01 0.00 74 1012.1
20260507153035 55 0 0.9 7.8 0.00 0.01 0.00 82 1011.6
20260507151533 55 0 0.0 1.7 0.00 0.01 0.00 87 1011.8
20260507150037 54 26 0.0 2.6 0.00 0.01 0.00 89 1012.1
20260507144544 54 78 0.9 5.2 0.00 0.01 0.00 87 1011.9
20260507143034 55 0 0.0 0.9 0.00 0.01 0.00 93 1012.0
20260507141532 55 0 0.0 0.9 0.00 0.01 0.00 91 1012.3
20260507140034 55 76 0.0 1.7 0.00 0.01 0.00 91 1012.3
20260507134536 55 0 0.9 4.3 0.00 0.02 0.00 89 1012.3
20260507133034 55 63 0.9 3.5 0.00 0.02 0.00 88 1012.1
20260507131533 56 76 0.9 3.5 0.00 0.02 0.00 87 1011.9
20260507130040 56 22 1.7 7.8 0.00 0.02 0.00 86 1012.1
20260507124540 55 305 1.7 7.8 0.00 0.05 0.00 87 1012.0
20260507123043 55 15 1.7 7.0 0.00 0.05 0.00 87 1012.1
20260507121538 55 51 0.9 3.5 0.00 0.05 0.00 87 1011.9
20260507120034 55 0 0.0 3.5 0.00 0.05 0.00 88 1011.5
20260507114534 54 41 1.7 3.5 0.00 0.05 0.00 88 1011.6
20260507113031 54 29 0.9 4.3 0.00 0.05 0.00 89 1011.4
20260507111543 54 327 0.9 3.5 0.00 0.05 0.00 90 1011.2
20260507110038 53 355 0.9 2.6 0.00 0.05 0.00 91 1011.4
20260507104535 53 0 0.0 2.6 0.00 0.05 0.00 91 1011.2
20260507103034 53 0 0.0 0.9 0.00 0.05 0.00 91 1011.4
20260507101533 53 0 0.0 0.9 0.00 0.05 0.00 91 1010.8
20260507100036 53 0 0.0 0.9 0.00 0.05 0.00 90 1010.8
20260507094540 54 0 0.0 3.5 0.00 0.05 0.00 90 1011.3
20260507093042 54 0 0.9 3.5 0.00 0.05 0.00 90 1011.3
20260507091534 54 326 0.9 3.5 0.00 0.05 0.00 91 1011.1
20260507090042 55 111 0.9 8.7 0.00 0.05 0.00 90 1011.0
20260507084540 56 53 1.7 7.0 0.00 0.05 0.00 88 1010.9
20260507083039 56 17 1.7 6.1 0.00 0.05 0.00 89 1010.7
20260507081537 56 5 1.7 7.0 0.00 0.05 0.00 89 1010.8
20260507080035 56 349 1.7 7.0 0.00 0.05 0.00 89 1010.6
20260507074534 56 329 0.9 7.0 0.00 0.05 0.00 90 1010.3
20260507073035 57 34 1.7 7.8 0.00 0.05 0.00 90 1010.2
20260507071535 57 24 1.7 8.7 0.00 0.05 0.00 91 1010.3
20260507070036 58 25 2.6 9.6 0.00 0.05 0.00 92 1010.2
20260507064534 60 315 2.6 9.6 0.00 0.05 0.00 92 1010.0
20260507063033 61 13 3.5 7.8 0.00 0.05 0.00 93 1009.5
20260507061537 62 37 0.0 3.5 0.00 0.05 0.00 92 1008.6
20260507060036 63 36 0.9 6.1 0.00 0.05 0.00 91 1008.8
20260507054539 64 32 1.7 4.3 0.00 0.05 0.00 93 1008.7
20260507053032 64 0 0.0 0.9 0.00 0.05 0.00 93 1008.9
20260507051541 65 0 0.0 0.9 0.00 0.05 0.00 92 1009.2
20260507050041 65 0 0.0 0.9 0.00 0.05 0.00 91 1009.4
20260507044535 65 0 0.0 0.9 0.00 0.05 0.00 89 1009.4
20260507043042 66 0 0.0 0.9 0.00 0.05 0.00 89 1009.3
20260507041547 66 0 0.0 1.7 0.00 0.05 0.00 88 1009.1
20260507040032 66 0 0.0 1.7 0.00 0.05 0.00 88 1009.1
20260507034537 66 217 0.0 0.9 0.00 0.05 0.05 87 1009.3
20260507033037 66 223 0.0 2.6 0.00 0.05 0.05 86 1009.1
20260507031534 66 0 0.0 0.9 0.00 0.05 0.05 86 1009.2
20260507030042 66 0 0.0 2.6 0.00 0.05 0.05 86 1009.1
20260507024532 66 238 0.9 2.6 0.00 0.05 0.05 86 1008.5
20260507023033 66 238 0.9 4.3 0.01 0.05 0.05 86 1008.6
20260507021535 66 197 0.9 3.5 0.01 0.05 0.05 86 1008.7
20260507020035 66 212 0.0 1.7 0.01 0.05 0.05 85 1009.1
20260507014548 66 135 1.7 3.5 0.01 0.05 0.05 85 1009.1
20260507013051 66 0 0.0 1.7 0.00 0.04 0.04 85 1009.3
20260507011540 66 198 0.0 1.7 0.00 0.04 0.04 85 1009.2
20260507010035 66 217 0.9 3.5 0.00 0.04 0.04 85 1008.8
20260507004530 66 211 0.0 1.7 0.00 0.04 0.04 84 1008.7
20260507003034 67 184 0.9 4.3 0.00 0.04 0.04 83 1008.8
20260507001537 67 194 0.0 3.5 0.00 0.04 0.04 82 1009.0
20260507000034 68 338 0.0 5.2 0.00 0.04 0.04 81 1009.0
20260506234530 68 196 0.9 5.2 0.00 0.04 0.04 80 1008.8
20260506233043 69 216 0.9 5.2 0.00 0.04 0.04 79 1008.5
20260506231529 69 227 0.9 6.1 0.00 0.04 0.04 78 1008.6
20260506230034 70 98 2.6 6.1 0.00 0.04 0.04 78 1008.5
20260506224534 70 324 0.9 10.4 0.00 0.04 0.04 78 1008.6
20260506223030 70 190 0.9 4.3 0.00 0.04 0.04 79 1008.5
20260506221530 70 224 1.7 5.2 0.00 0.04 0.04 78 1008.6
20260506220030 70 190 1.7 8.7 0.00 0.04 0.04 78 1008.5
20260506214535 70 235 1.7 8.7 0.00 0.04 0.04 78 1008.5
20260506213036 70 230 2.6 7.8 0.00 0.04 0.04 77 1008.8
20260506211531 71 247 1.7 9.6 0.00 0.04 0.04 75 1009.0
20260506210041 70 0 0.0 9.6 0.00 0.04 0.04 76 1008.7
20260506204536 71 240 1.7 7.8 0.00 0.04 0.04 76 1008.7
20260506203042 70 163 1.7 9.6 0.00 0.04 0.04 77 1008.6
20260506201534 69 229 3.5 8.7 0.00 0.04 0.04 79 1008.6
20260506200042 67 178 0.9 5.2 0.00 0.04 0.04 81 1008.9
20260506194539 67 249 2.6 7.8 0.00 0.04 0.04 81 1008.5
20260506193037 67 120 2.6 9.6 0.00 0.04 0.04 81 1009.0
20260506191535 67 177 3.5 10.4 0.00 0.04 0.04 81 1009.0
20260506190035 66 158 3.5 10.4 0.00 0.04 0.04 82 1009.6
20260506184536 66 231 2.6 7.0 0.00 0.04 0.04 82 1009.3
20260506183037 66 155 1.7 10.4 0.00 0.04 0.04 83 1009.6
20260506181537 66 0 0.9 7.0 0.00 0.04 0.04 84 1009.8
20260506180045 66 166 1.7 7.8 0.00 0.04 0.04 83 1010.0
20260506174531 66 188 2.6 7.8 0.00 0.04 0.04 83 1009.9
20260506173032 65 229 0.9 6.1 0.00 0.04 0.04 86 1010.0
20260506171546 65 82 0.9 4.3 0.00 0.04 0.04 86 1010.2
20260506170037 65 242 1.7 9.6 0.00 0.04 0.04 86 1010.3
20260506164533 64 190 2.6 10.4 0.00 0.04 0.04 88 1010.3
20260506163044 64 205 2.6 7.8 0.00 0.04 0.04 89 1010.6
20260506161548 63 179 2.6 8.7 0.00 0.04 0.04 91 1010.7
20260506160032 62 196 2.6 7.0 0.00 0.04 0.04 92 1010.5